Location: Dodgeville, WI 53533, USA
(43.0344°N, 90.0900°W)
Time: 05:12:34
(UTC-06:00)

X-37B - Pass Details

Date: 26 January 2021
Orbit: 383 x 391 km, 45.0° (Epoch: 27 February)

Event Time Altitude Azimuth Distance (km) Brightness Sun altitude
Rises 18:12:53 0° 280° (W) 2,272 5.8 -12.4°
Reaches altitude 10° 18:14:58 10° 284° (WNW) 1,418 4.5 -12.8°
Maximum altitude 18:18:08 59° 5° (N) 453 0.8 -13.4°
Enters shadow 18:19:36 28° 76° (ENE) 772 1.5 -13.6°
